[[{"header":{"parameterUnit":"m.s-1","parameterCategory":1,"la1":30.2991,"la2":30.254,"lo1":-89.0895,"lo2":-89.0444,"dy":0.0017,"dx":0.0017,"nx":28,"ny":28,"refTime":"2025-01-04T03:00:00:Z","depth":0,"parameterNumber":2,"parameterNumberName":"U-component_of_WINDS"},"data":[0,0,0,0,0,0,0,0,0,0,0,0,0,0,0,0,0,0,0,0,0,0,0,0,0,0,0,0,0,0,0,0,0,0,0,0,0,0,0,0,0,0,0,0,0,0,0,0,0,0,0,0,0,0,0,0,0,0,-0.1751,-0.1751,0,-0.1686,-0.1685,-0.1685,-0.163,-0.163,-0.1629,-0.1629,-0.1561,-0.1559,-0.1558,0,0,0,0,0,0,0,0,0,0,0,0,0,-0.1827,-0.1826,-0.1752,-0.1751,-0.175,-0.1686,-0.1685,-0.1684,-0.163,-0.163,-0.1629,-0.1628,-0.1561,-0.156,-0.1558,0,0,0,0,0,0,0,0,0,0,0,0,0,-0.1781,-0.1826,-0.1752,-0.1715,-0.1711,-0.1686,-0.1685,-0.1684,-0.1631,-0.163,-0.1629,-0.1628,-0.1562,-0.156,-0.1558,-0.1563,0,0,-0.1552,-0.1551,0,0,0,0,0,0,0,0,-0.1784,-0.1779,-0.1721,-0.1718,-0.1713,-0.1666,-0.1687,-0.1644,-0.1631,-0.1661,-0.1629,-0.1628,-0.1596,-0.1591,-0.1581,-0.156,-0.1557,-0.1552,-0.1551,-0.155,-0.1549,0,0,0,0,0,0,0,-0.1787,-0.1781,-0.1726,-0.1721,-0.1716,-0.1701,-0.1694,-0.1679,-0.1634,-0.1659,-0.1654,-0.1648,-0.1594,-0.1583,-0.1579,-0.1556,-0.1552,-0.155,-0.1549,-0.1548,-0.1534,-0.1535,0,0,0,0,0,0,-0.1796,-0.1784,-0.1728,-0.1724,-0.1747,-0.1701,-0.1692,-0.1682,-0.1634,-0.1626,-0.1648,-0.1645,-0.1587,-0.1581,-0.1576,-0.1578,-0.155,-0.1548,-0.1547,-0.1533,-0.1534,-0.1535,0,0,0,0,0,0,-0.1798,-0.1792,-0.173,-0.1753,-0.1744,-0.17,-0.1689,-0.1681,-0.167,-0.1627,-0.1618,-0.1646,-0.1586,-0.1579,-0.1567,-0.1575,-0.1547,-0.1546,-0.1532,-0.1534,-0.1535,-0.1583,0,0,0,0,0,0,-0.18,-0.1793,-0.1795,-0.1753,-0.1743,-0.1723,-0.1689,-0.168,-0.1667,-0.1662,-0.1622,-0.1614,-0.1585,-0.157,-0.1565,-0.1572,-0.1544,-0.1531,-0.1533,-0.1534,-0.158,-0.1586,-0.159,0,0,0,0,0,-0.1803,-0.1812,-0.1796,-0.1789,-0.1745,-0.1723,-0.1717,-0.1683,-0.1668,-0.1669,-0.1641,-0.1616,-0.1575,-0.1569,-0.1563,-0.157,-0.1531,-0.1532,-0.1534,-0.1578,-0.1585,-0.159,0,0,0,0,0,0,-0.1856,-0.1805,-0.1787,-0.1782,-0.1757,-0.1714,-0.1715,-0.1691,-0.167,-0.1667,-0.1625,-0.1616,-0.1608,-0.1587,-0.1581,-0.1571,-0.1549,-0.155,-0.1585,-0.1591,-0.1595,-0.16,-0.1542,0,0,0,0,0,-0.1867,-0.1854,-0.181,-0.181,-0.1798,-0.1759,-0.1748,-0.1724,-0.1696,-0.1686,-0.1657,-0.163,-0.1611,-0.16,-0.158,-0.1577,-0.1566,-0.1579,-0.1583,-0.1588,-0.1588,-0.1583,-0.1588,-0.1541,-0.1541,-0.1541,0,0,-0.1889,-0.186,-0.1855,-0.182,-0.1798,-0.1784,-0.1751,-0.1738,-0.1727,-0.1684,-0.167,-0.1647,-0.1615,-0.1607,-0.1602,-0.159,-0.1599,-0.159,-0.1593,-0.1592,-0.1585,-0.159,-0.1594,-0.1542,-0.1542,-0.1541,0,0,-0.1923,-0.1901,-0.1897,-0.1875,-0.1842,-0.1815,-0.1815,-0.1775,-0.1758,-0.1743,-0.171,-0.1696,-0.1665,-0.1642,-0.1627,-0.1651,-0.1626,-0.1645,-0.1671,-0.1666,-0.167,-0.1673,-0.168,-0.1683,-0.1647,-0.1647,-0.1647,0,-0.1955,-0.1934,-0.1898,-0.1887,-0.1872,-0.1832,-0.1827,-0.1807,-0.177,-0.176,-0.1747,-0.1705,-0.1681,-0.1666,-0.1672,-0.1661,-0.1657,-0.165,-0.1672,-0.1675,-0.1677,-0.1683,-0.1686,-0.1649,-0.1649,-0.1649,-0.1648,0,-0.1975,-0.1961,-0.1961,-0.1926,-0.1911,-0.1903,-0.1865,-0.1854,-0.183,-0.1805,-0.1789,-0.1758,-0.1731,-0.1725,-0.1703,-0.1707,-0.17,-0.168,-0.1657,-0.1685,-0.169,-0.1692,-0.1653,-0.1652,-0.1651,-0.1651,0,0,-0.2041,-0.1984,-0.1985,-0.1967,-0.1927,-0.1915,-0.1904,-0.1877,-0.1868,-0.1843,-0.1832,-0.1806,-0.1787,-0.177,-0.1744,-0.174,-0.1759,-0.172,-0.1719,-0.1727,-0.1759,-0.1773,-0.1777,-0.1742,-0.1742,-0.1742,-0.1761,0,-0.2067,-0.2047,-0.2013,-0.2004,-0.1989,-0.195,-0.194,-0.1914,-0.189,-0.1873,-0.1845,-0.1827,-0.1804,-0.1793,-0.1787,-0.1758,-0.1764,-0.1756,-0.173,-0.173,-0.1739,-0.178,-0.1795,-0.1815,-0.1763,-0.1763,-0.1763,0,-0.2096,-0.2073,-0.2062,-0.2021,-0.2014,-0.2006,-0.1978,-0.1963,-0.1931,-0.1913,-0.1893,-0.1865,-0.185,-0.183,-0.1808,-0.1803,-0.1791,-0.1774,-0.1774,-0.177,-0.1748,-0.1776,-0.182,-0.1823,-0.1766,-0.1766,-0.1766,0,-0.2144,-0.211,-0.2098,-0.2085,-0.2037,-0.2032,-0.2012,-0.198,-0.1965,-0.194,-0.193,-0.1903,-0.1889,-0.1868,-0.1833,-0.1821,-0.1815,-0.1792,-0.1798,-0.1799,-0.1798,-0.1799,-0.1841,-0.1792,-0.1792,-0.1792,-0.1792,0,-0.2177,-0.2171,-0.2119,-0.2112,-0.2104,-0.2064,-0.2057,-0.2033,-0.2004,-0.1991,-0.1955,-0.1943,-0.1897,-0.1879,-0.1852,-0.1837,-0.1831,-0.1815,-0.1808,-0.1818,-0.182,-0.1809,-0.1806,-0.1792,-0.1792,-0.1792,-0.1792,0,-0.2229,-0.2193,-0.2178,-0.2134,-0.2122,-0.2118,-0.208,-0.2071,-0.2044,-0.2027,-0.2021,-0.1978,-0.1955,-0.1917,-0.1883,-0.1864,-0.1854,-0.1843,-0.1865,-0.1861,-0.1869,-0.1868,-0.1904,-0.1906,-0.1858,-0.1858,-0.1859,0,-0.2252,-0.2246,-0.2201,-0.219,-0.2171,-0.2153,-0.2138,-0.2098,-0.2083,-0.2046,-0.2041,-0.2015,-0.1993,-0.1957,-0.1922,-0.1896,-0.1882,-0.1896,-0.1878,-0.1888,-0.1881,-0.1881,-0.1879,-0.1901,-0.1901,-0.1902,-0.1903,0,-0.2296,-0.2278,-0.2258,-0.2231,-0.2214,-0.2191,-0.2165,-0.2158,-0.2112,-0.2097,-0.2073,-0.2056,-0.202,-0.1995,-0.1963,-0.194,-0.1913,-0.1909,-0.1908,-0.1919,-0.1931,-0.1923,-0.1876,-0.1908,-0.1907,-0.1907,-0.1907,-0.1907,-0.2333,-0.2326,-0.2293,-0.227,-0.2247,-0.2224,-0.2213,-0.2184,-0.2164,-0.2132,-0.211,-0.2087,-0.2053,-0.2008,-0.1987,-0.1967,-0.1955,-0.1956,-0.1955,-0.1956,-0.1959,-0.1935,-0.1961,-0.1961,-0.1961,-0.1961,-0.1961,0,-0.2374,-0.235,-0.2331,-0.2296,-0.2279,-0.2255,-0.2226,-0.2212,-0.2193,-0.2164,-0.2142,-0.2113,-0.2088,-0.205,-0.2021,-0.2013,-0.1999,-0.2006,-0.2006,-0.2001,-0.1972,-0.1975,-0.2017,-0.2017,-0.2017,-0.2017,-0.2017,-0.2017,-0.2393,-0.2379,-0.2358,-0.2331,-0.2307,-0.2285,-0.227,-0.2248,-0.2225,-0.2194,-0.2173,-0.2149,-0.2116,-0.2084,-0.2059,-0.2048,-0.2039,-0.2049,-0.2035,-0.2009,-0.2003,-0.1998,-0.2,-0.2048,-0.2048,-0.2065,-0.2065,-0.2065]},{"header":{"parameterUnit":"m.s-1","parameterCategory":1,"la1":30.2991,"la2":30.254,"lo1":-89.0895,"lo2":-89.0444,"dy":0.0017,"dx":0.0017,"nx":28,"ny":28,"refTime":"2025-01-04T03:00:00:Z","depth":0,"parameterNumber":3,"parameterNumberName":"V-component_of_WINDS"},"data":[0,0,0,0,0,0,0,0,0,0,0,0,0,0,0,0,0,0,0,0,0,0,0,0,0,0,0,0,0,0,0,0,0,0,0,0,0,0,0,0,0,0,0,0,0,0,0,0,0,0,0,0,0,0,0,0,0,0,-2.7172,-2.7173,0,-2.7282,-2.7283,-2.7284,-2.7301,-2.73,-2.7299,-2.7298,-2.7409,-2.7413,-2.7416,0,0,0,0,0,0,0,0,0,0,0,0,0,-2.6977,-2.6981,-2.7172,-2.7173,-2.7175,-2.7281,-2.7283,-2.7284,-2.7301,-2.73,-2.7298,-2.7297,-2.7408,-2.7412,-2.7417,0,0,0,0,0,0,0,0,0,0,0,0,0,-2.7072,-2.6982,-2.7172,-2.7196,-2.7199,-2.7281,-2.7283,-2.7285,-2.7301,-2.73,-2.7298,-2.7297,-2.7406,-2.7412,-2.7417,-2.7483,0,0,-2.7435,-2.7438,0,0,0,0,0,0,0,0,-2.7066,-2.7079,-2.7191,-2.7194,-2.7198,-2.7276,-2.7255,-2.7351,-2.7301,-2.7262,-2.7298,-2.7296,-2.7366,-2.7375,-2.7398,-2.7488,-2.7493,-2.7436,-2.7439,-2.7442,-2.7443,0,0,0,0,0,0,0,-2.706,-2.7074,-2.7215,-2.7193,-2.7197,-2.7201,-2.7213,-2.7273,-2.7321,-2.7266,-2.7267,-2.728,-2.7367,-2.7393,-2.7401,-2.7494,-2.7435,-2.7441,-2.7444,-2.7446,-2.7643,-2.7645,0,0,0,0,0,0,-2.7049,-2.7069,-2.7212,-2.7219,-2.7127,-2.7206,-2.7219,-2.7252,-2.732,-2.7329,-2.7281,-2.728,-2.7384,-2.7394,-2.7405,-2.7486,-2.7442,-2.7447,-2.745,-2.7642,-2.7644,-2.7646,0,0,0,0,0,0,-2.7045,-2.7062,-2.7207,-2.7144,-2.7163,-2.7211,-2.7248,-2.7255,-2.7281,-2.7332,-2.734,-2.7298,-2.7383,-2.7397,-2.7463,-2.749,-2.745,-2.7455,-2.764,-2.7642,-2.7645,-2.7648,0,0,0,0,0,0,-2.7039,-2.706,-2.7085,-2.7145,-2.7166,-2.7264,-2.725,-2.7259,-2.7291,-2.7291,-2.735,-2.7359,-2.7383,-2.7455,-2.7469,-2.7497,-2.7459,-2.7637,-2.7641,-2.7644,-2.7645,-2.765,-2.7654,0,0,0,0,0,-2.7032,-2.7081,-2.7086,-2.7103,-2.7199,-2.7265,-2.7278,-2.7305,-2.7293,-2.7319,-2.7352,-2.7357,-2.7485,-2.7461,-2.7478,-2.7508,-2.7636,-2.764,-2.7644,-2.7643,-2.7649,-2.7654,0,0,0,0,0,0,-2.7023,-2.709,-2.7096,-2.7166,-2.721,-2.7268,-2.7301,-2.731,-2.7358,-2.7356,-2.7387,-2.74,-2.7465,-2.7494,-2.7466,-2.7575,-2.7559,-2.7567,-2.7554,-2.756,-2.7564,-2.7555,-2.7464,0,0,0,0,0,-2.7029,-2.7078,-2.7133,-2.719,-2.7212,-2.7253,-2.7283,-2.73,-2.7346,-2.7365,-2.7403,-2.7448,-2.7499,-2.7531,-2.758,-2.765,-2.7663,-2.7679,-2.7684,-2.7687,-2.7692,-2.7732,-2.7739,-2.7659,-2.7658,-2.7658,0,0,-2.7042,-2.7085,-2.7113,-2.7189,-2.7225,-2.7275,-2.7268,-2.7321,-2.7357,-2.7373,-2.7438,-2.7468,-2.752,-2.7588,-2.7621,-2.7614,-2.7718,-2.7692,-2.7694,-2.7698,-2.7736,-2.7744,-2.7751,-2.7661,-2.7661,-2.766,0,0,-2.7091,-2.7129,-2.7179,-2.7216,-2.7271,-2.7299,-2.7311,-2.7368,-2.7389,-2.7455,-2.7467,-2.7512,-2.7598,-2.7635,-2.7665,-2.773,-2.7736,-2.7745,-2.7767,-2.7805,-2.7811,-2.7817,-2.7839,-2.7847,-2.7751,-2.7751,-2.7751,0,-2.71,-2.7175,-2.7204,-2.7257,-2.7289,-2.7307,-2.7359,-2.7393,-2.7461,-2.7484,-2.7476,-2.7585,-2.7622,-2.7699,-2.7715,-2.7739,-2.7754,-2.7738,-2.7808,-2.7814,-2.782,-2.7842,-2.785,-2.7752,-2.7752,-2.7752,-2.7752,0,-2.7183,-2.7235,-2.727,-2.7336,-2.7373,-2.7424,-2.7462,-2.7496,-2.7511,-2.7539,-2.7606,-2.7651,-2.7709,-2.773,-2.7744,-2.781,-2.7804,-2.7802,-2.7786,-2.7828,-2.7849,-2.7857,-2.7753,-2.7752,-2.7752,-2.7752,0,0,-2.7227,-2.731,-2.7322,-2.7352,-2.7415,-2.7456,-2.7509,-2.7567,-2.7595,-2.7642,-2.7687,-2.7761,-2.776,-2.7794,-2.7813,-2.7847,-2.7894,-2.7841,-2.7843,-2.7848,-2.7969,-2.7968,-2.7977,-2.79,-2.7902,-2.7903,-2.7964,0,-2.7282,-2.7376,-2.7405,-2.7484,-2.7533,-2.7551,-2.7597,-2.7641,-2.7669,-2.7715,-2.7746,-2.7797,-2.7793,-2.7813,-2.7847,-2.7881,-2.7919,-2.7878,-2.7941,-2.7943,-2.7926,-2.7988,-2.7988,-2.8043,-2.7972,-2.7974,-2.7975,0,-2.7358,-2.7407,-2.7491,-2.7548,-2.757,-2.7611,-2.7667,-2.771,-2.776,-2.7779,-2.7818,-2.7834,-2.7891,-2.7874,-2.7952,-2.7923,-2.7951,-2.7972,-2.7975,-2.798,-2.796,-2.7994,-2.8061,-2.8069,-2.7988,-2.7987,-2.7986,0,-2.738,-2.7467,-2.7529,-2.7554,-2.7623,-2.7651,-2.7681,-2.7731,-2.7764,-2.7813,-2.7835,-2.789,-2.792,-2.7962,-2.7994,-2.7979,-2.8069,-2.8054,-2.8085,-2.8084,-2.8101,-2.8099,-2.8172,-2.8122,-2.8122,-2.8122,-2.8121,0,-2.7437,-2.7488,-2.7539,-2.7577,-2.7634,-2.7668,-2.7724,-2.7755,-2.7798,-2.7842,-2.7863,-2.7904,-2.7943,-2.799,-2.8015,-2.8075,-2.8089,-2.8105,-2.8111,-2.8102,-2.81,-2.812,-2.8116,-2.8124,-2.8123,-2.8123,-2.8123,0,-2.747,-2.7507,-2.7575,-2.7636,-2.7652,-2.7691,-2.7743,-2.778,-2.781,-2.7866,-2.7881,-2.7928,-2.7984,-2.802,-2.8091,-2.8108,-2.8174,-2.8179,-2.8156,-2.8159,-2.8187,-2.8183,-2.8273,-2.8286,-2.8229,-2.8229,-2.823,0,-2.7503,-2.7543,-2.7607,-2.7639,-2.7669,-2.7719,-2.7753,-2.7788,-2.7823,-2.7884,-2.7914,-2.7972,-2.8019,-2.8108,-2.8148,-2.8203,-2.8209,-2.8237,-2.8217,-2.8207,-2.8208,-2.8204,-2.8208,-2.8239,-2.824,-2.824,-2.824,0,-2.7558,-2.7575,-2.7623,-2.7679,-2.7719,-2.7765,-2.781,-2.7835,-2.7878,-2.7916,-2.7974,-2.801,-2.8084,-2.814,-2.8199,-2.823,-2.8242,-2.8247,-2.8256,-2.8247,-2.8232,-2.8239,-2.8163,-2.8244,-2.8243,-2.8243,-2.8243,-2.8243,-2.7591,-2.7627,-2.7678,-2.7732,-2.777,-2.7813,-2.7851,-2.7886,-2.7935,-2.7997,-2.8015,-2.8075,-2.8126,-2.8206,-2.8238,-2.8286,-2.8282,-2.8297,-2.83,-2.8303,-2.8302,-2.8226,-2.8297,-2.8297,-2.8297,-2.8297,-2.8297,0,-2.7646,-2.768,-2.7729,-2.7792,-2.7835,-2.7844,-2.7895,-2.793,-2.7982,-2.8029,-2.8076,-2.8142,-2.8198,-2.8243,-2.83,-2.833,-2.8337,-2.8343,-2.8341,-2.8347,-2.8302,-2.8288,-2.8337,-2.8337,-2.8337,-2.8337,-2.8337,-2.8337,-2.7679,-2.774,-2.7763,-2.7843,-2.7877,-2.7936,-2.7964,-2.8004,-2.8041,-2.8114,-2.816,-2.819,-2.8236,-2.8298,-2.8349,-2.8361,-2.838,-2.8386,-2.8399,-2.8355,-2.8351,-2.8346,-2.8333,-2.839,-2.839,-2.844,-2.844,-2.844]}]]